Location: Caltech
(34.1382°N, 118.1253°W)
Time: 19:38:51
(UTC-07:00)

UOSAT-12 - Visible Passes

Search period start: 28 July 2015 00:00
Search period end: 07 August 2015 00:00
Orbit: 600 x 655 km, 64.6° (Epoch: 28 July)

Date Brightness Start Highest point End Pass type
(mag) Time Alt. Az. Time Alt. Az. Time Alt. Az.
28 Jul 7.6 20:35:51 10° NNW 20:40:17 47° ENE 20:44:14 12° SE visible
28 Jul 9.5 22:17:27 10° WNW 22:20:02 15° WSW 22:21:34 12° SW visible
29 Jul 7.3 20:55:48 10° NNW 21:00:22 72° WSW 21:04:12 14° SSE visible
30 Jul 8.8 21:16:19 10° NW 21:20:18 29° WSW 21:24:07 10° S visible
31 Jul 9.8 21:38:24 10° W 21:40:07 12° WSW 21:41:33 10° SW visible
01 Aug 7.7 20:15:59 10° NW 20:20:29 58° WSW 20:24:53 10° SSE visible
02 Aug 9.2 20:36:42 10° WNW 20:40:23 23° WSW 20:43:53 10° SSW visible
